Location: Marcé
(47.5801°N, 0.3280°W)
Time: 05:30:44
(UTC+01:00)

Envisat - Pass Details

Date: 23 October 2021
Orbit: 764 x 766 km, 98.2° (Epoch: 04 December)

Event Time Altitude Azimuth Distance (km) Brightness Sun altitude
Rises 06:54:10 0° 17° (NNE) 3,245 6.5 -17.1°
Reaches altitude 10° 06:56:32 10° 21° (NNE) 2,314 5.8 -16.7°
Maximum altitude 07:01:33 57° 100° (E) 900 3.7 -15.9°
Drops below altitude 10° 07:06:32 10° 179° (S) 2,295 5.5 -15.0°
Sets 07:08:52 0° 184° (S) 3,216 6.2 -14.6°
